{"data":{"norad_id":47844,"intl_designator":"2021-018BK","name":"STARLINK-2446","alt_names":[],"object_type":"PAYLOAD","status":"ACTIVE","operator":null,"country":"US","launch_date":"2021-03-11","launch_site_code":"AFETR","launch_vehicle":null,"mission":null,"orbit_class":"UNKNOWN","rcs_meters":null,"size_class":null,"mass_kg":null,"dimensions":null,"purposes":["comms"],"wikipedia_slug":null,"has_3d_model":false,"image_url":null,"decayed_at":null,"tle_current":{"epoch":"2026-09-20T00:12:05.346144Z","epoch_age_seconds":71639,"freshness":"FRESH","line1":"1 47844U 21018BK  26263.00839521  .00039383  00000+0  99923-3 0  9996","line2":"2 47844  53.1567  58.8600 0003498 142.4066 217.7184 15.39316233306498","mean_motion":15.39316233,"eccentricity":0.0003498,"inclination_deg":53.1567,"raan_deg":58.86,"arg_perigee_deg":142.4066,"mean_anomaly_deg":217.7184,"bstar":0.00099923,"rev_number":30649,"period_min":93.548029256702,"perigee_km":445.74223505253,"apogee_km":450.51789149,"semimajor_km":6826.2670632713,"source":"CELESTRAK","updated_at":"2026-09-20T09:00:38.753968Z"}}}